Notices

What's New in latest Release from April 7th, 2021:

- Updated Glossary, including Speed of Maximum Gust, and Total Hourly Precipitation

- Updated national and regional climate services offices contacts and prices information

- Addition of station inventory lists for 1981-2010, 1971-2000, and 1961-1990 Normals.

If you haven't already, please take our survey and provide feedback about our website: https://eccc.sondage-survey.ca/f/LanguageSelection.aspx?s=442ca660-fcf1-47c0-95a9-59707d6fd709

Hourly Data Report for September 27, 2018

TORONTO CITY
ONTARIO
Current Station Operator: ECCC - MSC

43°40'00.000" N
79°24'00.000" W
112.50 m
6158355
71508
XTO

Download Data

Hourly Data (September 2018)
Hourly Data Report for September 27, 2018
TIME
LST
Temp Definition
°C
Dew Point Definition
°C
Rel Hum Definition
%
Precip. Amount Definition
mm

Wind Dir Definition
10's deg

Wind Spd Definition
km/h
Visibility Definition
km
Stn Press Definition
kPa
Hmdx Definition


Wind Chill Definition


Weather Definition


00:00 13.7 7.9 68 0.0 LegendMM LegendMM   100.62     LegendNANA
01:00 13.3 7.1 66 0.0 LegendMM LegendMM   100.62     LegendNANA
02:00 12.8 7.6 71 0.0 LegendMM LegendMM   100.65     LegendNANA
03:00 11.5 7.9 78 0.0 LegendMM LegendMM   100.67     LegendNANA
04:00 10.7 7.8 82 0.0 LegendMM LegendMM   100.69     LegendNANA
05:00 11.7 8.1 79 0.0 LegendMM LegendMM   100.72     LegendNANA
06:00 11.3 7.9 80 0.0 LegendMM LegendMM   100.74     LegendNANA
07:00 11.6 7.8 77 0.0 LegendMM LegendMM   100.77     LegendNANA
08:00 12.7 7.0 68 0.0 LegendMM LegendMM   100.80     LegendNANA
09:00 14.3 6.1 58 0.0 LegendMM LegendMM   100.80     LegendNANA
10:00 15.7 4.9 49 0.0 LegendMM LegendMM   100.78     LegendNANA
11:00 16.7 7.0 53 0.0 LegendMM LegendMM   100.74     LegendNANA
12:00 16.0 6.8 54 0.0 LegendMM LegendMM   100.71     LegendNANA
13:00 16.5 8.5 59 0.0 LegendMM LegendMM   100.57     LegendNANA
14:00 16.7 8.0 57 0.0 LegendMM LegendMM   100.52     LegendNANA
15:00 16.6 7.1 54 0.0 LegendMM LegendMM   100.50     LegendNANA
16:00 16.4 7.6 56 0.0 LegendMM LegendMM   100.42     LegendNANA
17:00 16.1 8.4 60 0.0 LegendMM LegendMM   100.37     LegendNANA
18:00 15.8 9.6 66 0.0 LegendMM LegendMM   100.32     LegendNANA
19:00 16.0 11.3 74 0.0 LegendMM LegendMM   100.27     LegendNANA
20:00 16.5 10.1 66 0.0 LegendMM LegendMM   100.25     LegendNANA
21:00 16.6 9.2 62 0.0 LegendMM LegendMM   100.22     LegendNANA
22:00 16.5 10.3 67 0.0 LegendMM LegendMM   100.20     LegendNANA
23:00 16.7 10.8 68 0.0 LegendMM LegendMM   100.20     LegendNANA

Notes on Data Quality.

Legend

  • E = Estimated
  • M = Missing
  • NA = Not Available*
  • [empty] = Indicates an unobserved value
Date modified: